TimeEST,TemperatureF,Dew PointF,Humidity,Sea Level PressureIn,VisibilityMPH,Wind Direction,Wind SpeedMPH,Gust SpeedMPH,PrecipitationIn,Events,Conditions,WindDirDegrees,DateUTC
12:51 AM,23.0,21.0,92,29.96,4.0,WSW,5.8,-,N/A,,Overcast,240,2013-02-06 05:51:00
1:51 AM,25.0,21.9,88,29.99,5.0,WSW,8.1,-,N/A,,Overcast,250,2013-02-06 06:51:00
2:51 AM,26.1,21.9,84,30.00,5.0,WSW,8.1,-,N/A,,Overcast,250,2013-02-06 07:51:00
3:44 AM,26.6,21.2,80,29.98,5.0,West,8.1,-,N/A,,Overcast,260,2013-02-06 08:44:00
3:51 AM,26.1,23.0,88,30.03,5.0,West,9.2,-,N/A,,Overcast,260,2013-02-06 08:51:00
4:51 AM,27.0,23.0,85,30.06,5.0,West,4.6,-,N/A,,Overcast,270,2013-02-06 09:51:00
5:04 AM,26.6,23.0,86,30.02,5.0,West,6.9,-,N/A,,Overcast,270,2013-02-06 10:04:00
5:51 AM,27.0,23.0,85,30.09,7.0,West,6.9,-,N/A,,Overcast,280,2013-02-06 10:51:00
6:02 AM,26.6,21.2,80,30.05,8.0,West,12.7,-,N/A,,Overcast,260,2013-02-06 11:02:00
6:51 AM,26.1,21.0,81,30.14,6.0,NW,15.0,-,N/A,Snow,Light Snow,320,2013-02-06 11:51:00
7:22 AM,24.8,19.4,80,30.11,6.0,NNW,11.5,-,0.00,Snow,Light Snow,340,2013-02-06 12:22:00
7:51 AM,23.0,18.0,81,30.18,3.0,NNW,8.1,-,0.00,Snow,Light Snow,340,2013-02-06 12:51:00
8:01 AM,23.0,17.6,80,30.14,4.0,NW,9.2,-,0.00,Snow,Light Snow,320,2013-02-06 13:01:00
8:27 AM,23.0,17.6,80,30.16,1.5,NW,11.5,-,0.00,Snow,Light Snow,310,2013-02-06 13:27:00
8:51 AM,21.9,17.1,82,30.23,1.0,NW,11.5,-,0.00,Snow,Light Snow,320,2013-02-06 13:51:00
9:20 AM,21.2,15.8,80,30.19,3.0,NW,10.4,-,0.00,Snow,Light Snow,320,2013-02-06 14:20:00
9:33 AM,21.2,15.8,80,30.19,9.0,NW,13.8,18.4,0.00,Snow,Light Snow,320,2013-02-06 14:33:00
9:51 AM,21.9,14.0,72,30.26,10.0,NW,8.1,-,N/A,Snow,Light Snow,310,2013-02-06 14:51:00
10:39 AM,23.0,12.2,63,30.21,10.0,NNW,9.2,-,0.00,,Mostly Cloudy,330,2013-02-06 15:39:00
10:51 AM,23.0,14.0,68,30.27,10.0,NNW,6.9,-,0.00,,Mostly Cloudy,330,2013-02-06 15:51:00
11:51 AM,25.0,12.0,58,30.27,10.0,NW,6.9,-,N/A,,Scattered Clouds,310,2013-02-06 16:51:00
12:51 PM,26.1,10.9,53,30.27,10.0,North,4.6,-,N/A,,Scattered Clouds,360,2013-02-06 17:51:00
1:51 PM,28.0,10.9,49,30.28,10.0,NNW,4.6,-,N/A,,Scattered Clouds,340,2013-02-06 18:51:00
2:51 PM,30.0,10.0,43,30.29,10.0,Calm,Calm,-,N/A,,Clear,0,2013-02-06 19:51:00
3:51 PM,28.9,9.0,43,30.29,10.0,Calm,Calm,-,N/A,,Clear,0,2013-02-06 20:51:00
4:51 PM,30.0,8.1,40,30.30,10.0,Calm,Calm,-,N/A,,Clear,0,2013-02-06 21:51:00
5:51 PM,27.0,7.0,43,30.31,10.0,Calm,Calm,-,N/A,,Clear,0,2013-02-06 22:51:00
6:51 PM,25.0,6.1,45,30.32,10.0,Calm,Calm,-,N/A,,Clear,0,2013-02-06 23:51:00
7:51 PM,21.0,7.0,55,30.35,10.0,Calm,Calm,-,N/A,,Clear,0,2013-02-07 00:51:00
8:51 PM,18.0,7.0,62,30.35,10.0,ESE,3.5,-,N/A,,Partly Cloudy,110,2013-02-07 01:51:00
9:51 PM,18.0,8.1,65,30.35,10.0,East,3.5,-,N/A,,Partly Cloudy,100,2013-02-07 02:51:00
10:51 PM,18.0,8.1,65,30.33,10.0,East,4.6,-,N/A,,Mostly Cloudy,90,2013-02-07 03:51:00
11:51 PM,17.1,8.1,68,30.31,10.0,ESE,6.9,-,N/A,,Partly Cloudy,120,2013-02-07 04:51:00